Temp
60 60 60 60 60 59 59 59 59 60 60 60 60 60 60 60 60 56 52 63 63 70 69 68 70 71 70 66 69 67 53 53 57 59 64 73 71 78 83 79 83 87 87 87 87
59 59 59 59 59 59 59 59 59 59 60 60 60 60 60 60 53 51 64 71 70 70 66 64 63 67 60 64 65 58 47 55 65 68 67 72 73 76 77 75 77 80 88 90 88
59 59 59 59 59 58 58 59 59 59 59 59 59 59 60 59 51 61 72 71 70 70 66 66 65 62 56 60 61 59 55 63 66 70 71 70 71 77 73 70 75 75 81 86 84
58 59 59 58 58 58 58 58 59 59 59 59 59 59 60 55 47 67 73 72 71 69 67 64 60 51 50 53 61 55 64 65 67 71 70 68 73 72 75 74 80 82 82 83 79
58 58 58 58 57 58 58 58 58 58 58 58 59 59 54 51 56 74 74 73 70 68 65 61 54 52 46 54 59 55 62 65 68 69 70 72 69 71 73 80 83 84 84 82 80
58 58 58 58 57 57 57 57 57 57 57 58 59 60 52 48 71 76 73 69 69 65 62 61 58 60 54 52 50 58 59 60 63 64 65 66 68 72 75 81 80 82 82 80 83
57 57 57 57 57 57 57 57 56 56 57 59 60 60 52 54 71 71 70 66 70 70 67 69 66 62 56 54 57 58 52 57 60 61 63 68 63 65 74 77 77 78 82 82 82
57 57 57 57 57 57 57 57 56 57 58 60 62 56 48 69 67 69 71 72 73 73 71 72 68 60 55 56 57 51 49 41 52 60 65 64 55 68 74 73 74 75 79 82 78
57 56 56 57 57 57 56 56 56 58 60 60 53 50 50 71 70 75 74 71 73 72 71 78 66 58 55 47 42 43 37 41 48 57 59 58 54 65 69 70 71 74 72 78 80
57 56 56 56 56 56 55 55 57 58 60 65 64 50 59 64 71 75 74 74 68 67 65 61 55 49 45 42 34 40 41 46 46 55 55 53 54 60 64 65 64 67 71 74 78
57 56 56 56 56 55 52 51 54 53 54 54 58 58 64 71 75 71 75 70 67 60 49 54 46 41 47 49 52 50 48 46 51 58 54 52 53 58 60 61 60 62 66 68 73
56 56 56 55 56 55 49 51 58 60 49 62 64 64 69 70 63 69 74 61 57 48 53 47 41 51 58 56 53 50 46 44 51 57 55 52 53 59 59 59 60 62 63 65 69
55 55 55 55 54 51 51 59 65 61 47 58 65 64 65 68 62 63 68 62 55 49 49 42 50 58 56 51 50 47 44 45 45 52 53 50 48 53 60 60 62 63 63 64 64
55 55 55 55 53 51 56 67 64 61 38 51 60 65 68 66 58 71 71 64 55 50 50 48 55 55 51 50 49 41 51 50 48 43 34 47 33 47 53 56 58 61 60 61 63
54 55 55 53 46 50 62 63 62 59 29 59 61 72 67 60 62 65 72 62 52 53 51 47 50 49 47 49 53 46 51 48 47 42 37 42 34 44 49 50 55 59 63 62 64
54 54 54 51 47 54 60 60 58 39 31 54 62 60 57 59 61 65 64 64 62 53 51 51 57 53 51 54 53 53 47 44 40 37 28 39 37 40 46 50 56 58 56 60 60
54 53 52 55 53 58 57 53 37 31 58 51 52 57 55 54 56 59 58 51 44 38 38 47 48 53 55 46 48 45 35 25 24 24 26 42 36 41 50 50 47 50 52 55 56
52 52 51 57 54 55 53 44 32 48 49 58 55 55 51 53 53 54 51 45 51 48 38 32 32 47 53 47 42 40 36 23 19 24 28 40 31 38 47 51 53 55 53 56 54
51 48 51 57 59 55 46 33 36 46 54 52 53 48 48 52 51 49 47 47 49 47 36 33 36 52 54 53 48 40 33 40 26 31 29 31 39 47 50 49 51 52 54 53 55
43 46 51 61 60 51 40 39 46 56 57 54 41 48 42 46 46 44 45 52 50 51 47 40 32 48 51 53 51 45 46 29 28 22 22 31 34 35 42 44 47 49 50 52 54
45 46 57 60 55 45 34 40 50 59 58 52 45 43 45 42 44 42 45 50 53 49 47 38 35 38 45 41 40 38 35 35 33 31 26 24 28 42 42 45 43 46 50 51 51
41 42 58 57 42 38 37 47 52 54 57 54 51 48 44 45 43 42 41 47 54 50 40 39 34 29 37 48 50 44 38 35 27 28 31 30 29 50 45 46 46 47 51 52 53
39 41 56 55 32 35 44 50 52 52 52 48 47 49 47 40 35 44 45 53 54 47 41 39 31 28 31 39 43 38 41 40 37 33 28 26 30 49 46 45 47 46 49 52 53
40 37 43 43 43 38 38 42 46 55 52 50 47 47 43 40 41 38 42 50 52 51 51 44 36 31 27 35 40 33 38 40 36 26 30 33 36 43 47 47 47 48 50 53 55
40 36 38 33 37 38 38 43 43 44 49 47 43 44 39 32 36 37 41 44 49 51 42 40 33 35 38 40 40 38 37 39 37 38 31 37 39 44 44 47 48 51 58 55 56
36 34 37 34 39 39 40 38 42 44 44 42 39 43 40 33 37 35 38 37 37 43 42 40 33 37 34 40 41 37 41 42 43 43 41 40 38 51 51 51 52 54 58 58 59
41 41 42 36 35 34 34 38 41 42 45 48 43 40 38 42 46 46 46 45 43 40 37 35 34 31 29 39 38 32 41 42 42 46 40 33 41 47 46 47 49 49 52 54 56
MSLP
1020.50 1020.08 1019.69 1019.33 1018.98 1018.60 1018.24 1017.91 1017.54 1017.16 1016.78 1016.46 1016.17 1015.79 1015.33 1014.86 1014.39 1013.93 1013.29 1011.34 1011.08 1010.81 1010.95 1010.84 1010.39 1009.89 1009.83 1009.88 1009.57 1009.58 1009.94 1009.33 1008.65 1007.85 1006.07 1005.27 1004.94 1003.33 1003.44 1002.72 1001.75 1001.16 999.93 998.72 999.90
1020.45 1020.01 1019.58 1019.19 1018.83 1018.47 1018.12 1017.71 1017.27 1016.89 1016.56 1016.25 1015.96 1015.54 1015.06 1014.67 1014.20 1013.31 1010.97 1010.41 1010.46 1010.63 1010.72 1010.60 1010.36 1010.04 1009.98 1009.80 1009.69 1009.63 1009.31 1008.45 1007.61 1007.34 1006.40 1005.75 1004.65 1004.11 1003.89 1003.18 1001.90 1001.70 1000.32 999.76 1000.76
1020.41 1019.90 1019.44 1019.02 1018.61 1018.21 1017.81 1017.38 1016.99 1016.63 1016.29 1016.03 1015.77 1015.40 1014.89 1014.61 1013.92 1011.10 1010.00 1010.10 1010.30 1010.57 1010.60 1010.52 1010.43 1010.36 1010.10 1009.82 1009.54 1008.92 1008.41 1008.19 1007.48 1007.10 1006.52 1005.95 1004.91 1004.73 1004.23 1003.35 1002.86 1002.35 1001.79 1001.40 1001.57
1020.26 1019.71 1019.22 1018.78 1018.34 1017.91 1017.48 1017.04 1016.65 1016.29 1015.96 1015.74 1015.50 1015.05 1014.42 1014.32 1012.78 1010.03 1009.58 1009.68 1010.13 1010.43 1010.47 1010.39 1010.35 1010.26 1010.17 1010.01 1009.43 1009.09 1008.63 1008.19 1007.51 1007.07 1006.73 1006.04 1005.26 1004.19 1004.25 1003.14 1002.77 1001.74 1002.37 1002.05 1002.14
1020.11 1019.55 1019.02 1018.55 1018.11 1017.60 1017.12 1016.73 1016.42 1016.10 1015.77 1015.49 1015.18 1014.79 1014.37 1013.57 1011.27 1009.09 1009.24 1009.55 1010.17 1010.37 1010.20 1010.15 1010.27 1010.14 1010.27 1009.85 1009.43 1009.01 1008.62 1008.00 1007.41 1006.84 1006.32 1006.10 1005.01 1004.08 1003.15 1002.40 1002.60 1001.27 1001.84 1001.99 1001.96
1019.97 1019.38 1018.84 1018.33 1017.80 1017.21 1016.67 1016.25 1015.93 1015.68 1015.46 1015.21 1014.88 1014.64 1014.39 1012.52 1009.10 1008.62 1009.03 1009.81 1009.94 1010.06 1009.73 1009.87 1009.82 1009.77 1010.11 1010.23 1010.10 1009.29 1008.82 1008.26 1007.36 1006.84 1006.31 1005.89 1004.80 1004.31 1001.89 1002.01 1002.07 1001.72 1000.54 1001.52 1001.41
1019.83 1019.22 1018.60 1017.99 1017.35 1016.76 1016.14 1015.67 1015.38 1015.13 1014.93 1014.71 1014.52 1014.35 1013.73 1011.03 1008.94 1009.00 1009.46 1009.29 1009.14 1009.35 1009.30 1008.95 1009.05 1009.53 1009.99 1010.17 1009.74 1009.64 1009.23 1008.30 1007.60 1006.92 1006.53 1006.04 1004.79 1003.47 1002.91 1002.30 1001.99 1001.73 1000.81 1000.64 1001.05
1019.62 1018.97 1018.31 1017.57 1016.93 1016.29 1015.62 1015.04 1014.65 1014.53 1014.44 1014.29 1014.09 1014.03 1012.50 1009.39 1008.94 1009.25 1008.92 1008.57 1008.44 1008.33 1008.51 1008.55 1008.77 1009.47 1010.01 1010.27 1010.23 1010.19 1009.83 1009.20 1007.89 1007.19 1006.53 1006.23 1003.84 1002.78 1003.15 1003.18 1002.18 1001.82 1001.19 1000.47 1000.92
1019.40 1018.73 1018.03 1017.24 1016.46 1015.74 1015.09 1014.40 1013.73 1013.65 1013.69 1013.89 1014.06 1013.67 1011.44 1009.08 1008.94 1008.52 1008.30 1008.49 1008.42 1008.28 1008.29 1008.33 1008.85 1009.72 1010.28 1010.95 1011.34 1010.72 1010.52 1009.55 1008.62 1007.30 1006.65 1006.21 1004.20 1003.52 1003.27 1003.12 1002.42 1001.55 1001.28 1000.81 1000.36
1019.08 1018.32 1017.65 1016.97 1016.16 1015.38 1014.55 1013.40 1012.80 1013.07 1013.05 1013.24 1013.00 1013.18 1010.63 1009.15 1008.38 1008.15 1008.03 1008.19 1008.38 1008.56 1008.59 1008.65 1009.31 1010.16 1010.87 1011.54 1011.63 1011.04 1010.46 1009.47 1008.77 1007.73 1006.99 1006.37 1004.97 1004.47 1004.01 1003.78 1003.23 1002.72 1002.08 1001.34 1000.55
1018.74 1017.91 1017.16 1016.45 1015.78 1015.24 1014.48 1013.21 1013.01 1012.92 1012.43 1011.94 1011.53 1010.91 1009.59 1008.79 1008.11 1008.00 1007.93 1008.09 1008.42 1009.00 1009.54 1009.37 1010.16 1010.69 1010.67 1010.85 1010.60 1010.55 1010.15 1009.67 1008.69 1007.77 1007.09 1006.53 1005.17 1004.50 1004.19 1003.83 1003.64 1003.17 1002.72 1002.00 1001.05
1018.48 1017.56 1016.70 1015.93 1015.23 1014.93 1014.98 1013.95 1012.36 1011.90 1011.52 1010.56 1010.12 1009.90 1009.24 1008.67 1008.34 1008.01 1007.86 1008.54 1008.92 1009.58 1009.89 1010.38 1010.39 1010.14 1010.10 1009.97 1009.99 1009.96 1009.87 1009.48 1008.56 1007.93 1007.58 1007.09 1005.27 1004.17 1004.18 1003.99 1003.60 1003.28 1002.81 1002.16 1001.34
1018.24 1017.40 1016.51 1015.43 1014.64 1014.41 1014.22 1012.77 1011.57 1011.37 1011.76 1009.83 1008.90 1008.62 1008.33 1008.10 1008.09 1007.91 1008.03 1008.33 1008.93 1009.61 1010.08 1010.50 1010.11 1009.59 1009.60 1009.61 1009.72 1009.92 1010.14 1010.07 1009.93 1008.91 1008.39 1007.81 1005.63 1004.66 1003.90 1003.90 1003.67 1003.42 1003.01 1002.35 1001.76
1017.94 1017.19 1016.48 1015.32 1014.51 1014.37 1013.25 1011.96 1011.44 1011.29 1011.70 1009.61 1008.23 1007.49 1007.47 1007.68 1007.86 1007.35 1007.70 1008.32 1008.88 1009.37 1009.79 1010.05 1009.35 1009.45 1009.43 1009.64 1009.78 1010.10 1010.16 1010.21 1010.07 1010.08 1009.72 1009.17 1006.80 1005.65 1004.79 1003.95 1003.82 1003.38 1003.02 1002.46 1001.62
1017.43 1016.74 1016.18 1015.92 1015.18 1014.36 1012.78 1011.82 1011.31 1011.66 1010.91 1008.80 1007.89 1007.03 1007.29 1007.82 1007.48 1007.01 1007.18 1007.92 1008.58 1008.86 1009.71 1009.60 1009.40 1009.30 1009.49 1009.77 1009.83 1010.17 1010.41 1010.59 1010.49 1010.36 1010.15 1009.37 1008.84 1004.93 1005.03 1004.43 1003.95 1003.51 1002.90 1002.24 1001.66
1016.76 1016.08 1015.80 1015.44 1015.22 1013.31 1012.44 1011.86 1011.69 1012.26 1010.21 1008.64 1008.16 1007.90 1008.11 1007.86 1007.59 1007.22 1007.28 1007.65 1007.70 1008.66 1009.05 1009.29 1009.04 1009.08 1009.32 1009.54 1009.75 1010.22 1010.65 1010.87 1010.91 1010.89 1010.54 1009.32 1009.06 1003.73 1005.24 1004.52 1004.18 1003.69 1003.64 1003.13 1002.53
1016.07 1015.13 1015.08 1014.94 1013.86 1012.68 1012.48 1012.35 1012.60 1011.72 1009.70 1009.63 1009.22 1008.82 1008.53 1008.12 1007.86 1007.32 1007.57 1008.02 1008.56 1009.19 1009.61 1009.58 1009.26 1009.11 1009.33 1009.78 1010.06 1010.79 1011.58 1012.20 1012.15 1011.87 1010.69 1009.43 1008.52 1006.00 1004.99 1004.89 1005.17 1004.92 1004.11 1003.25 1002.64
1015.53 1014.43 1014.32 1013.89 1013.15 1013.19 1013.18 1013.26 1012.83 1011.88 1011.00 1010.27 1010.04 1009.37 1009.28 1009.14 1008.93 1008.68 1008.64 1008.98 1009.26 1009.75 1010.35 1010.46 1010.16 1009.55 1009.83 1010.06 1010.41 1011.02 1011.93 1013.11 1013.04 1012.81 1011.39 1010.69 1008.25 1006.29 1005.27 1005.02 1005.06 1004.94 1004.33 1003.28 1002.44
1015.30 1014.36 1013.96 1012.98 1012.78 1013.22 1014.07 1013.81 1013.20 1012.05 1011.36 1010.81 1010.34 1010.12 1010.07 1010.27 1010.25 1010.07 1009.86 1009.83 1010.35 1010.72 1011.43 1011.46 1010.57 1009.75 1009.68 1009.82 1010.52 1010.82 1011.66 1011.74 1012.65 1012.60 1012.27 1010.01 1007.48 1005.79 1005.19 1004.95 1004.34 1004.10 1003.50 1002.89 1002.15
1016.45 1015.53 1013.90 1012.47 1012.61 1013.52 1014.53 1014.21 1012.98 1011.82 1011.03 1011.02 1011.09 1011.05 1011.14 1011.08 1011.16 1011.29 1010.81 1010.56 1010.83 1011.19 1011.50 1012.10 1011.26 1010.29 1010.02 1009.97 1009.55 1010.32 1011.02 1012.08 1013.00 1012.97 1011.65 1009.26 1007.95 1006.59 1005.65 1005.20 1004.55 1003.76 1003.32 1002.42 1001.86
1016.55 1015.71 1013.40 1012.67 1013.05 1014.45 1015.24 1014.41 1013.05 1011.90 1011.13 1011.21 1011.49 1011.73 1011.91 1012.22 1012.10 1011.89 1011.53 1011.17 1011.23 1011.54 1011.69 1012.38 1012.51 1011.52 1011.07 1010.29 1009.66 1010.48 1011.10 1012.05 1012.69 1012.81 1011.66 1010.13 1007.85 1006.18 1005.78 1005.04 1004.73 1003.84 1003.05 1002.10 1001.35
1017.74 1016.35 1013.45 1013.22 1014.50 1015.34 1015.36 1014.52 1013.45 1012.51 1011.80 1011.35 1011.51 1012.00 1012.41 1012.67 1012.61 1012.42 1011.99 1011.74 1011.49 1011.81 1012.32 1013.08 1013.22 1012.76 1011.70 1009.85 1010.00 1010.26 1010.74 1011.40 1012.04 1012.16 1011.29 1010.22 1007.48 1005.27 1005.04 1004.20 1004.13 1003.12 1002.07 1001.43 1000.60
1019.09 1017.20 1014.21 1014.03 1015.70 1016.27 1015.44 1014.60 1013.75 1012.87 1012.44 1012.52 1012.39 1012.53 1012.69 1013.08 1013.27 1012.62 1012.15 1011.71 1011.69 1012.13 1012.68 1013.45 1013.76 1013.33 1011.67 1010.71 1010.43 1010.25 1010.72 1011.00 1011.07 1010.97 1010.32 1009.71 1006.40 1004.53 1004.23 1004.03 1003.47 1002.81 1001.63 1000.68 999.66
1019.30 1018.36 1016.73 1016.21 1016.58 1016.87 1016.61 1015.27 1014.14 1013.13 1013.09 1013.22 1013.38 1013.21 1013.57 1013.73 1013.72 1013.45 1012.83 1012.12 1012.18 1012.28 1012.69 1013.49 1014.04 1013.91 1012.64 1011.27 1010.53 1010.25 1010.11 1010.22 1010.40 1009.89 1009.00 1007.62 1006.14 1004.70 1003.49 1003.11 1002.27 1001.54 1000.02 999.49 998.48
1019.55 1020.13 1019.79 1018.66 1017.89 1017.78 1017.22 1016.05 1015.03 1014.22 1013.78 1013.66 1013.80 1014.21 1014.66 1014.63 1014.29 1013.71 1013.12 1012.67 1012.30 1012.09 1013.13 1013.80 1014.05 1013.62 1012.04 1011.04 1010.13 1009.52 1009.32 1008.77 1008.41 1008.06 1007.81 1005.99 1005.56 1004.01 1003.03 1001.86 1001.05 1000.63 999.63 998.80 997.54
1020.67 1020.86 1020.34 1019.91 1018.98 1018.27 1017.37 1016.73 1015.92 1015.19 1014.72 1014.23 1014.28 1014.24 1014.40 1014.69 1014.55 1013.80 1013.52 1013.35 1013.00 1012.56 1013.03 1013.95 1013.52 1012.97 1011.36 1009.97 1009.25 1008.58 1008.02 1007.51 1006.77 1006.48 1005.98 1005.43 1004.52 1003.17 1002.45 1001.45 1001.09 1000.79 999.74 998.77 997.58
1021.05 1020.79 1020.85 1020.20 1019.59 1018.86 1018.07 1017.57 1016.57 1015.90 1014.87 1014.68 1014.70 1014.38 1014.10 1013.72 1013.26 1012.82 1012.49 1012.36 1012.26 1012.44 1013.03 1013.93 1013.73 1013.13 1011.23 1009.80 1008.93 1007.92 1007.08 1006.71 1006.47 1006.10 1006.07 1005.47 1004.42 1003.99 1002.99 1002.28 1002.16 1000.85 1000.24 999.19 998.29
Wind_Speed
17 17 17 17 16 16 16 16 16 16 16 16 16 16 17 17 16 4 6 11 8 7 4 5 5 5 1 3 3 1 4 11 13 12 12 9 8 15 6 8 11 9 8 5 14
17 17 17 17 17 17 17 16 17 16 16 16 16 16 17 16 5 6 12 10 10 3 2 2 2 4 2 5 4 6 5 9 6 10 12 14 17 19 17 17 18 11 14 15 7
18 18 17 18 18 18 18 17 17 17 17 16 16 16 17 12 4 4 9 13 9 7 3 2 3 2 3 4 5 5 11 7 7 9 8 14 23 15 15 17 15 9 10 9 11
20 19 19 19 18 18 19 18 18 18 18 17 16 16 18 2 2 4 13 13 8 5 1 2 2 1 2 4 5 7 10 7 10 15 15 20 19 21 18 21 13 17 3 5 6
21 21 21 21 20 20 19 18 18 17 17 16 15 13 6 2 8 7 14 10 5 4 4 3 1 2 2 4 5 6 9 9 11 12 16 17 21 23 24 22 14 22 6 5 2
22 23 22 22 22 22 20 19 18 17 16 15 12 10 0 4 5 8 10 2 6 5 5 7 2 3 2 2 1 5 7 9 7 9 6 8 13 12 27 19 14 16 20 7 5
21 22 23 24 24 22 21 18 16 17 17 14 10 4 2 12 2 3 8 6 4 7 5 4 1 5 3 9 3 7 8 9 6 3 4 6 16 24 14 10 13 11 19 8 7
20 21 24 24 24 24 23 20 19 18 15 13 3 2 8 7 3 4 5 5 4 4 2 5 3 3 3 2 8 6 4 4 3 7 6 8 26 22 11 10 17 11 13 16 7
22 22 24 25 25 24 24 22 22 18 12 8 2 3 9 9 3 5 4 3 6 5 5 7 6 5 1 2 5 3 5 6 7 6 6 6 16 8 8 8 16 18 9 16 15
24 24 23 24 25 24 24 22 13 6 5 6 5 2 5 2 4 3 2 3 2 5 7 1 4 3 3 4 4 6 5 6 5 5 1 7 16 8 6 6 8 10 11 14 17
27 25 25 24 24 22 12 5 6 4 1 7 5 5 9 6 1 1 1 1 3 5 3 4 3 4 11 9 12 7 10 7 5 8 6 9 15 14 6 6 8 8 12 13 15
26 27 27 25 23 19 2 2 3 5 7 10 13 14 16 8 4 5 1 3 2 3 6 7 3 3 5 6 6 8 5 7 6 7 11 12 21 18 8 6 7 10 11 11 13
25 26 27 28 28 2 3 6 4 3 3 8 6 6 7 7 4 7 3 3 4 2 3 3 8 8 8 6 7 6 5 8 8 12 8 6 18 16 15 5 6 7 9 10 10
25 25 25 28 4 4 4 7 2 4 4 5 4 4 3 4 4 8 8 7 3 6 4 6 7 5 7 3 3 3 7 10 12 9 4 3 16 16 12 14 8 10 8 11 11
25 26 25 17 4 3 6 10 4 5 3 7 4 3 3 5 2 4 8 3 7 7 6 11 5 11 3 1 2 6 6 6 9 10 4 9 7 13 5 13 15 13 15 11 12
26 25 22 1 1 8 8 8 5 4 2 2 3 3 2 5 8 3 9 2 5 6 3 9 3 4 5 2 1 3 4 7 4 3 6 9 9 27 12 9 14 12 13 14 16
29 28 13 3 4 4 6 5 5 5 9 5 6 6 7 5 5 5 6 3 3 2 2 3 3 3 3 1 3 2 4 5 6 3 6 2 6 20 9 3 2 9 12 12 12
31 22 2 4 6 6 4 5 7 10 11 9 8 9 2 12 6 9 5 4 7 6 1 3 7 2 2 4 6 5 6 5 4 6 11 13 8 6 7 3 3 7 9 11 8
23 5 2 5 4 3 6 6 1 5 6 7 6 3 5 10 6 8 6 3 5 6 2 3 5 8 6 3 2 2 4 8 3 4 5 6 8 6 5 6 9 11 10 13 13
3 5 4 4 3 6 6 2 3 8 1 4 3 5 5 8 6 7 4 6 5 4 3 4 8 4 2 5 9 7 3 2 3 4 5 5 6 7 8 9 10 14 12 15 14
3 4 5 4 6 6 3 4 5 13 2 1 3 5 4 3 4 4 4 7 9 2 5 1 2 5 4 6 13 3 2 2 3 4 4 5 6 7 8 11 9 12 13 12 16
4 3 4 5 5 1 1 5 7 10 7 4 1 3 2 2 4 3 5 3 6 0 3 1 1 5 10 20 9 4 4 5 3 3 4 3 10 10 11 12 7 12 15 15 15
3 4 4 6 3 4 6 5 3 5 7 6 5 3 2 2 4 4 3 5 7 2 4 1 1 6 8 4 4 2 4 4 4 2 6 5 10 5 11 10 9 10 14 17 16
2 5 6 5 1 2 5 5 6 5 3 5 3 6 6 4 2 5 7 4 11 7 8 5 3 6 7 15 10 12 15 15 9 5 6 14 20 17 21 15 11 11 12 13 14
4 1 1 5 4 5 3 3 6 7 2 3 4 2 3 4 5 6 3 12 11 11 5 6 6 11 19 22 20 19 20 21 17 15 13 17 17 17 9 17 11 14 13 13 16
3 3 4 4 6 6 5 4 5 9 3 4 3 6 1 4 8 16 12 4 7 5 4 4 6 7 15 18 16 18 18 20 19 14 9 5 12 11 12 10 9 13 15 15 16
3 3 1 4 5 3 2 4 7 7 7 6 8 5 5 11 11 13 13 12 12 11 5 5 3 3 6 8 13 7 4 4 3 2 3 7 10 10 16 17 16 20 20 13 18
Wind_Direction
345 344 342 339 336 332 329 325 324 322 321 320 323 326 325 323 321 305 231 221 191 244 324 275 278 260 247 236 221 298 203 226 227 236 250 335 310 299 299 325 317 331 328 109 117
343 341 339 337 334 330 326 323 322 321 319 320 325 326 324 327 307 235 246 218 209 231 285 339 295 358 226 216 219 180 208 223 246 249 288 310 298 299 329 328 315 353 348 52 149
341 339 337 335 332 328 325 323 321 320 319 321 324 321 316 323 298 259 216 214 209 188 230 292 287 243 196 236 232 214 243 258 275 286 295 291 288 306 305 300 295 320 353 12 59
341 339 337 334 330 327 324 321 319 318 318 319 321 321 316 163 149 234 204 214 203 196 273 289 303 279 229 237 224 252 263 260 261 264 269 272 287 281 280 269 274 287 212 315 88
339 337 336 335 332 326 322 318 316 314 313 314 318 320 346 309 250 232 206 222 202 187 209 187 279 206 226 252 326 257 276 273 266 261 250 258 263 273 279 275 282 288 262 218 273
339 337 334 332 330 325 320 315 313 311 308 310 313 314 218 284 245 202 193 169 225 195 255 160 220 249 205 308 353 302 301 289 295 288 280 288 288 284 270 283 276 273 284 192 240
337 335 333 329 326 323 318 311 307 304 303 305 304 263 252 240 214 329 141 214 209 205 234 279 261 76 22 331 331 304 307 316 293 269 284 280 278 259 280 312 283 263 284 264 209
334 329 327 329 326 322 318 311 300 292 290 291 290 246 252 252 292 284 200 340 320 328 299 272 187 171 152 263 335 325 326 330 308 352 277 159 262 264 271 280 281 273 277 279 218
333 329 328 327 327 323 319 305 291 285 266 241 169 171 269 301 190 199 178 226 286 284 276 258 117 175 12 77 352 323 257 265 307 238 232 173 269 294 320 272 274 279 270 282 278
333 331 328 326 327 326 320 298 281 293 200 191 247 329 279 272 183 201 225 210 251 315 324 296 89 118 14 93 238 252 262 268 278 290 39 288 274 282 298 317 295 300 295 281 275
334 329 328 328 326 328 335 353 14 13 93 207 201 248 305 313 15 267 177 211 9 39 359 305 77 210 247 226 244 263 270 269 283 295 280 274 276 286 281 302 306 300 301 299 291
332 329 328 327 324 322 273 327 229 205 304 243 238 249 260 273 243 276 262 151 86 283 335 8 286 241 281 311 313 312 311 309 274 303 305 302 287 284 269 252 263 274 280 283 296
332 329 330 327 323 69 203 243 325 74 354 297 213 215 228 169 207 241 160 154 222 281 319 195 251 295 316 317 329 336 354 348 335 324 333 328 288 293 293 246 278 285 271 280 270
331 330 331 331 347 342 248 299 242 95 54 274 155 218 143 140 267 214 183 174 200 217 240 251 251 268 288 299 44 336 348 331 321 330 277 12 284 286 289 289 267 280 284 281 282
328 329 329 321 274 332 291 320 340 62 47 169 158 199 190 171 289 242 174 152 206 224 121 250 279 278 295 4 326 265 333 305 305 285 297 260 263 288 328 295 298 288 275 269 274
326 326 332 292 250 242 308 304 55 41 16 83 82 358 12 241 254 245 170 199 214 210 208 238 240 133 168 224 282 311 318 318 326 219 246 275 218 276 254 271 275 330 347 336 335
326 321 319 251 235 327 328 34 55 72 336 21 13 340 318 306 312 313 185 231 271 46 1 325 325 96 117 332 332 154 16 327 333 348 240 8 295 260 268 64 113 317 313 312 312
327 319 196 219 265 350 32 51 63 354 25 24 351 315 345 20 10 352 26 357 49 51 82 173 322 313 81 212 255 239 178 163 256 278 289 290 249 266 81 49 286 274 270 293 304
328 332 314 260 244 82 63 54 123 359 354 346 331 309 6 22 350 3 342 24 46 53 66 317 261 325 284 16 76 255 193 206 183 231 261 236 279 279 46 340 332 321 319 308 315
338 336 282 287 104 58 69 289 329 317 50 1 11 348 343 1 25 14 306 57 3 80 116 326 300 186 281 331 266 179 210 279 9 285 250 260 270 257 313 301 309 315 313 300 306
20 22 266 72 60 50 106 253 322 345 108 124 255 269 324 11 343 348 297 325 24 15 98 96 190 276 5 237 280 314 221 58 122 201 267 296 260 230 246 259 265 281 289 297 298
353 36 286 55 44 52 342 319 320 357 340 329 24 70 137 299 268 279 227 244 353 153 24 52 244 282 276 278 280 238 211 158 186 208 230 257 257 257 224 243 247 283 303 298 276
341 274 333 81 65 336 313 323 316 324 2 29 324 16 168 246 303 245 302 319 309 96 140 237 290 300 314 26 323 121 223 224 229 207 221 253 264 231 250 253 251 275 295 283 278
34 3 328 31 71 87 4 290 319 295 75 45 327 1 10 349 4 298 305 308 338 313 148 132 221 229 253 277 283 282 282 276 229 205 246 248 278 296 288 278 241 254 251 266 282
32 8 139 307 328 329 217 294 328 359 34 64 329 359 92 296 296 246 305 316 317 289 104 131 256 251 257 265 271 269 268 273 265 241 238 271 271 285 285 304 240 235 292 301 300
77 31 353 298 301 317 343 345 338 336 293 288 226 285 211 229 229 279 274 275 243 273 180 146 271 279 283 267 262 266 266 260 253 263 264 289 279 246 312 298 286 258 294 305 315
318 339 46 282 315 353 235 328 317 340 293 30 327 304 282 275 266 257 250 247 239 257 211 159 241 259 263 302 302 281 308 321 312 306 302 275 272 344 326 324 335 318 311 346 354